Back to Top

Language: 

My Weather Underground Personal Weather Station Historical Data with Graphs...

Delerius Weather Station Historical Data
Daily Summary for October 7, 2017 Units:  Metric    English   Both
« Previous Day
Next Day »
Daily Weekly Monthly Yearly Custom
  High: Low: Average:
Temperature: 14.4 °C 11.1 °C 13 °C
Dew Point: 12 °C 7.9 °C 10.9 °C
Humidity: 92 % 80 % 87 %
Wind Speed: 38.6 km/h 0 km/h 20.1 km/h
Wind Gust: 59.5 km/h - -
Wind:- - West
Pressure: 1019.5 hPa 1012.1 hPa -
Precipitation: 0.25 mm    
Historical Graphs
 
 
Tabular Data for October 7, 2017
Time Temperature Dew Point Pressure Wind Wind Speed Wind Gust Humidity Rainfall Rate (Hourly) solar Conditions
00:04 11.2 °C 7.9 °C 1019.5 hPa SW 6.4 km/h 12.9 km/h 80 % 0 mm 0 W/m2
00:09 11.3 °C 8.2 °C 1019.5 hPa SW 6.4 km/h 12.9 km/h 81 % 0 mm 0 W/m2
00:14 11.3 °C 8.2 °C 1019.5 hPa SW 4.8 km/h 14.5 km/h 81 % 0 mm 0 W/m2
00:19 11.3 °C 8.3 °C 1019.5 hPa SW 1.6 km/h 14.5 km/h 82 % 0 mm 0 W/m2
00:24 11.3 °C 8.3 °C 1019.2 hPa Calm   1.6 km/h 82 % 0 mm 0 W/m2
00:29 11.3 °C 8.3 °C 1019.2 hPa Calm   1.6 km/h 82 % 0 mm 0 W/m2
00:34 11.4 °C 8.6 °C 1019.2 hPa South 3.2 km/h 14.5 km/h 83 % 0 mm 0 W/m2
00:39 11.5 °C 8.7 °C 1018.8 hPa South 4.8 km/h 14.5 km/h 83 % 0 mm 0 W/m2
00:44 11.5 °C 8.7 °C 1018.8 hPa South 3.2 km/h 16.1 km/h 83 % 0 mm 0 W/m2
00:49 11.6 °C 8.8 °C 1018.8 hPa South 3.2 km/h 16.1 km/h 83 % 0 mm 0 W/m2
00:54 11.6 °C 9 °C 1018.8 hPa SW 3.2 km/h 11.3 km/h 84 % 0 mm 0 W/m2
00:59 11.6 °C 9 °C 1018.5 hPa WSW 3.2 km/h 11.3 km/h 84 % 0 mm 0 W/m2
01:04 11.7 °C 9.3 °C 1018.5 hPa WSW 4.8 km/h 14.5 km/h 85 % 0 mm 0 W/m2
01:09 11.7 °C 9.3 °C 1018.5 hPa WSW 9.7 km/h 22.5 km/h 85 % 0 mm 0 W/m2
01:14 11.8 °C 9.3 °C 1018.5 hPa WSW 12.9 km/h 30.6 km/h 85 % 0 mm 0 W/m2
01:19 11.8 °C 9.3 °C 1018.2 hPa WSW 12.9 km/h 30.6 km/h 85 % 0 mm 0 W/m2
01:24 11.8 °C 9.6 °C 1018.2 hPa WSW 14.5 km/h 24.1 km/h 86 % 0 mm 0 W/m2
01:29 11.9 °C 9.6 °C 1017.8 hPa WSW 16.1 km/h 35.4 km/h 86 % 0 mm 0 W/m2
01:34 11.9 °C 9.6 °C 1017.8 hPa WSW 17.7 km/h 35.4 km/h 86 % 0 mm 0 W/m2
01:39 11.9 °C 9.6 °C 1017.5 hPa SW 14.5 km/h 30.6 km/h 86 % 0 mm 0 W/m2
01:44 11.8 °C 9.7 °C 1017.5 hPa SW 14.5 km/h 25.7 km/h 87 % 0 mm 0 W/m2
01:55 12 °C 9.9 °C 1017.5 hPa SW 16.1 km/h 29 km/h 87 % 0 mm 0 W/m2
02:00 12.1 °C 10 °C 1017.5 hPa SW 16.1 km/h 24.1 km/h 87 % 0 mm 0 W/m2
02:05 12.3 °C 10.2 °C 1017.5 hPa WSW 16.1 km/h 29 km/h 87 % 0 mm 0 W/m2
02:10 12.4 °C 10.3 °C 1017.2 hPa WSW 16.1 km/h 29 km/h 87 % 0 mm 0 W/m2
02:20 12.7 °C 10.4 °C 1017.2 hPa WSW 19.3 km/h 43.5 km/h 86 % 0 mm 0 W/m2
02:25 12.8 °C 10.5 °C 1017.2 hPa WSW 17.7 km/h 33.8 km/h 86 % 0 mm 0 W/m2
02:30 12.9 °C 10.6 °C 1016.8 hPa WSW 19.3 km/h 33.8 km/h 86 % 0 mm 0 W/m2
02:35 12.9 °C 10.4 °C 1016.8 hPa WSW 20.9 km/h 33.8 km/h 85 % 0 mm 0 W/m2
02:45 13 °C 10.7 °C 1016.5 hPa WSW 24.1 km/h 40.2 km/h 86 % 0 mm 0 W/m2
02:50 13 °C 10.7 °C 1016.1 hPa WSW 24.1 km/h 40.2 km/h 86 % 0 mm 0 W/m2
02:55 13 °C 10.7 °C 1016.1 hPa WSW 24.1 km/h 46.7 km/h 86 % 0 mm 0 W/m2
03:00 13 °C 10.7 °C 1015.8 hPa WSW 24.1 km/h 46.7 km/h 86 % 0 mm 0 W/m2
03:05 13.1 °C 10.8 °C 1015.8 hPa WSW 24.1 km/h 41.8 km/h 86 % 0 mm 0 W/m2
03:10 13.1 °C 10.8 °C 1015.8 hPa WSW 24.1 km/h 43.5 km/h 86 % 0 mm 0 W/m2
03:20 13.2 °C 10.9 °C 1015.8 hPa West 20.9 km/h 48.3 km/h 86 % 0 mm 0 W/m2
03:25 13.2 °C 10.9 °C 1015.8 hPa West 20.9 km/h 48.3 km/h 86 % 0 mm 0 W/m2
03:30 13.3 °C 11 °C 1015.8 hPa WSW 22.5 km/h 41.8 km/h 86 % 0 mm 0 W/m2
03:35 13.3 °C 11 °C 1015.5 hPa West 22.5 km/h 41.8 km/h 86 % 0 mm 0 W/m2
03:40 13.3 °C 11 °C 1015.5 hPa West 22.5 km/h 40.2 km/h 86 % 0 mm 0 W/m2
03:45 13.3 °C 11 °C 1015.5 hPa WSW 22.5 km/h 37 km/h 86 % 0 mm 0 W/m2
03:50 13.4 °C 11.1 °C 1015.1 hPa WSW 22.5 km/h 37 km/h 86 % 0 mm 0 W/m2
03:55 13.4 °C 11.3 °C 1015.1 hPa WSW 22.5 km/h 40.2 km/h 87 % 0 mm 0 W/m2
04:00 13.4 °C 11.3 °C 1015.1 hPa WSW 24.1 km/h 40.2 km/h 87 % 0 mm 0 W/m2
04:05 13.5 °C 11.4 °C 1015.1 hPa WSW 22.5 km/h 40.2 km/h 87 % 0 mm 0 W/m2
04:10 13.6 °C 11.5 °C 1014.8 hPa WSW 22.5 km/h 37 km/h 87 % 0 mm 0 W/m2
04:15 13.6 °C 11.5 °C 1014.8 hPa WSW 22.5 km/h 37 km/h 87 % 0 mm 0 W/m2
04:21 13.6 °C 11.5 °C 1014.8 hPa WSW 22.5 km/h 38.6 km/h 87 % 0 mm 0 W/m2
04:26 13.6 °C 11.5 °C 1014.8 hPa WSW 24.1 km/h 40.2 km/h 87 % 0 mm 0 W/m2
04:31 13.6 °C 11.5 °C 1014.8 hPa WSW 24.1 km/h 40.2 km/h 87 % 0 mm 0 W/m2
04:36 13.6 °C 11.5 °C 1014.8 hPa WSW 24.1 km/h 40.2 km/h 87 % 0 mm 0 W/m2
04:41 13.5 °C 11.6 °C 1014.4 hPa WSW 22.5 km/h 38.6 km/h 88 % 0 mm 0 W/m2
04:46 13.5 °C 11.6 °C 1014.1 hPa WSW 20.9 km/h 40.2 km/h 88 % 0 mm 0 W/m2
04:51 13.4 °C 11.4 °C 1014.1 hPa WSW 19.3 km/h 40.2 km/h 88 % 0 mm 0 W/m2
04:56 13.4 °C 11.6 °C 1014.1 hPa WSW 19.3 km/h 35.4 km/h 89 % 0 mm 0 W/m2
05:01 13.5 °C 11.7 °C 1013.8 hPa WSW 20.9 km/h 35.4 km/h 89 % 0 mm 0 W/m2
05:06 13.5 °C 11.7 °C 1013.8 hPa WSW 20.9 km/h 37 km/h 89 % 0 mm 0 W/m2
05:11 13.6 °C 11.7 °C 1013.8 hPa WSW 22.5 km/h 37 km/h 88 % 0 mm 0 W/m2
05:16 13.6 °C 11.7 °C 1013.8 hPa WSW 24.1 km/h 41.8 km/h 88 % 0 mm 0 W/m2
05:21 13.7 °C 11.7 °C 1013.8 hPa WSW 25.7 km/h 41.8 km/h 88 % 0 mm 0 W/m2
05:23 13.7 °C 11.7 °C 1013.8 hPa West 25.7 km/h 43.5 km/h 88 % 0 mm 0 W/m2
05:28 13.7 °C 11.7 °C 1013.8 hPa West 25.7 km/h 43.5 km/h 88 % 0 mm 0 W/m2
05:33 13.7 °C 11.7 °C 1013.8 hPa West 24.1 km/h 38.6 km/h 88 % 0 mm 0 W/m2
05:38 13.7 °C 11.7 °C 1013.8 hPa West 25.7 km/h 46.7 km/h 88 % 0 mm 0 W/m2
05:43 13.7 °C 11.7 °C 1013.8 hPa West 24.1 km/h 46.7 km/h 88 % 0 mm 0 W/m2
05:48 13.7 °C 11.7 °C 1013.8 hPa West 24.1 km/h 37 km/h 88 % 0 mm 0 W/m2
05:53 13.6 °C 11.7 °C 1013.8 hPa West 24.1 km/h 43.5 km/h 88 % 0 mm 0 W/m2
05:58 13.6 °C 11.8 °C 1013.8 hPa West 24.1 km/h 43.5 km/h 89 % 0 mm 0 W/m2
06:03 13.6 °C 11.8 °C 1013.8 hPa West 22.5 km/h 40.2 km/h 89 % 0 mm 0 W/m2
06:08 13.5 °C 11.7 °C 1013.4 hPa West 19.3 km/h 33.8 km/h 89 % 0 mm 0 W/m2
06:13 13.5 °C 11.7 °C 1013.4 hPa West 17.7 km/h 30.6 km/h 89 % 0 mm 0 W/m2
06:18 13.5 °C 11.9 °C 1013.4 hPa West 20.9 km/h 48.3 km/h 90 % 0 mm 0 W/m2
06:23 13.6 °C 11.8 °C 1013.4 hPa West 24.1 km/h 48.3 km/h 89 % 0 mm 0 W/m2
06:28 13.6 °C 12 °C 1013.4 hPa West 24.1 km/h 40.2 km/h 90 % 0 mm 0 W/m2
06:33 13.5 °C 11.9 °C 1013.4 hPa West 25.7 km/h 43.5 km/h 90 % 0 mm 0 W/m2
06:38 13.6 °C 12 °C 1013.1 hPa West 25.7 km/h 45.1 km/h 90 % 0 mm 0 W/m2
06:43 13.6 °C 12 °C 1013.1 hPa West 25.7 km/h 45.1 km/h 90 % 0 mm 0 W/m2
06:48 13.6 °C 11.8 °C 1013.1 hPa West 22.5 km/h 43.5 km/h 89 % 0 mm 0 W/m2
06:53 13.6 °C 11.8 °C 1013.1 hPa West 22.5 km/h 41.8 km/h 89 % 0 mm 0 W/m2
06:58 13.6 °C 11.8 °C 1013.1 hPa West 27.4 km/h 48.3 km/h 89 % 0 mm 0 W/m2
07:03 13.7 °C 11.7 °C 1013.1 hPa West 27.4 km/h 48.3 km/h 88 % 0 mm 0 W/m2
07:08 13.7 °C 11.7 °C 1012.8 hPa West 25.7 km/h 41.8 km/h 88 % 0 mm 0 W/m2
07:13 13.7 °C 11.7 °C 1013.1 hPa West 25.7 km/h 41.8 km/h 88 % 0 mm 0 W/m2
07:18 13.8 °C 12 °C 1013.1 hPa West 25.7 km/h 40.2 km/h 89 % 0 mm 0 W/m2
07:23 13.8 °C 12 °C 1012.8 hPa West 22.5 km/h 40.2 km/h 89 % 0 mm 0 W/m2
07:28 13.7 °C 11.7 °C 1013.1 hPa West 24.1 km/h 40.2 km/h 88 % 0 mm 7 W/m2
07:33 13.7 °C 11.6 °C 1013.1 hPa West 27.4 km/h 48.3 km/h 87 % 0 mm 9 W/m2
07:38 13.7 °C 11.4 °C 1012.8 hPa West 25.7 km/h 48.3 km/h 86 % 0 mm 11 W/m2
07:44 13.7 °C 11.4 °C 1013.1 hPa West 27.4 km/h 46.7 km/h 86 % 0 mm 16 W/m2
07:49 13.7 °C 11.4 °C 1012.8 hPa West 29 km/h 46.7 km/h 86 % 0 mm 19 W/m2
07:54 13.6 °C 11.3 °C 1012.8 hPa West 30.6 km/h 49.9 km/h 86 % 0 mm 21 W/m2
07:59 13.6 °C 11.3 °C 1012.8 hPa West 30.6 km/h 51.5 km/h 86 % 0 mm 25 W/m2
08:04 13.6 °C 11.3 °C 1012.8 hPa West 27.4 km/h 51.5 km/h 86 % 0 mm 21 W/m2
08:09 13.6 °C 11.1 °C 1012.8 hPa West 24.1 km/h 40.2 km/h 85 % 0 mm 26 W/m2
08:14 13.6 °C 11.1 °C 1012.4 hPa West 22.5 km/h 38.6 km/h 85 % 0 mm 25 W/m2
08:19 13.6 °C 11.1 °C 1012.4 hPa West 24.1 km/h 43.5 km/h 85 % 0 mm 25 W/m2
08:24 13.7 °C 11.2 °C 1012.4 hPa West 25.7 km/h 43.5 km/h 85 % 0 mm 37 W/m2
08:29 13.7 °C 11.1 °C 1012.4 hPa West 24.1 km/h 43.5 km/h 84 % 0 mm 39 W/m2
08:34 13.7 °C 11.1 °C 1012.4 hPa West 24.1 km/h 38.6 km/h 84 % 0 mm 30 W/m2
08:39 13.8 °C 11.2 °C 1012.4 hPa WNW 25.7 km/h 48.3 km/h 84 % 0 mm 35 W/m2
08:44 13.8 °C 10.9 °C 1012.4 hPa West 25.7 km/h 48.3 km/h 83 % 0 mm 42 W/m2
08:49 13.8 °C 10.9 °C 1012.8 hPa West 24.1 km/h 41.8 km/h 83 % 0 mm 49 W/m2
08:54 13.8 °C 11.2 °C 1012.8 hPa West 25.7 km/h 49.9 km/h 84 % 0 mm 54 W/m2
08:59 13.8 °C 11.2 °C 1012.8 hPa West 27.4 km/h 49.9 km/h 84 % 0 mm 63 W/m2
09:04 13.9 °C 11.2 °C 1012.8 hPa West 27.4 km/h 45.1 km/h 84 % 0 mm 74 W/m2
09:09 13.9 °C 11.1 °C 1012.8 hPa West 27.4 km/h 41.8 km/h 83 % 0 mm 83 W/m2
09:14 13.9 °C 11.1 °C 1012.4 hPa West 29 km/h 45.1 km/h 83 % 0 mm 95 W/m2
09:19 13.9 °C 11.1 °C 1012.4 hPa West 27.4 km/h 45.1 km/h 83 % 0 mm 86 W/m2
09:24 13.8 °C 10.9 °C 1012.4 hPa West 29 km/h 45.1 km/h 83 % 0 mm 83 W/m2
09:29 13.8 °C 10.9 °C 1012.4 hPa West 32.2 km/h 46.7 km/h 83 % 0 mm 83 W/m2
09:34 13.9 °C 11.1 °C 1012.1 hPa West 30.6 km/h 51.5 km/h 83 % 0 mm 86 W/m2
09:39 13.9 °C 11.1 °C 1012.4 hPa West 32.2 km/h 51.5 km/h 83 % 0 mm 95 W/m2
09:44 13.9 °C 11.1 °C 1012.4 hPa West 32.2 km/h 51.5 km/h 83 % 0 mm 77 W/m2
09:49 13.9 °C 11.1 °C 1012.4 hPa West 30.6 km/h 51.5 km/h 83 % 0 mm 74 W/m2
09:54 13.9 °C 10.9 °C 1012.4 hPa West 30.6 km/h 49.9 km/h 82 % 0 mm 67 W/m2
09:59 13.9 °C 10.9 °C 1012.4 hPa West 30.6 km/h 49.9 km/h 82 % 0 mm 69 W/m2
10:04 13.9 °C 11.1 °C 1012.4 hPa West 27.4 km/h 45.1 km/h 83 % 0 mm 60 W/m2
10:09 13.9 °C 11.1 °C 1012.4 hPa WNW 27.4 km/h 46.7 km/h 83 % 0 mm 58 W/m2
10:14 13.9 °C 11.1 °C 1012.4 hPa WNW 27.4 km/h 46.7 km/h 83 % 0 mm 63 W/m2
10:19 13.9 °C 11.1 °C 1012.4 hPa WNW 29 km/h 57.9 km/h 83 % 0 mm 74 W/m2
10:24 13.9 °C 10.9 °C 1012.1 hPa West 33.8 km/h 57.9 km/h 82 % 0 mm 77 W/m2
10:29 13.9 °C 11.1 °C 1012.1 hPa West 32.2 km/h 53.1 km/h 83 % 0 mm 72 W/m2
10:34 13.8 °C 11.2 °C 1012.1 hPa WNW 32.2 km/h 53.1 km/h 84 % 0 mm 69 W/m2
10:39 13.7 °C 11.1 °C 1012.1 hPa WNW 33.8 km/h 51.5 km/h 84 % 0 mm 62 W/m2
10:44 13.6 °C 11.1 °C 1012.1 hPa WNW 35.4 km/h 59.5 km/h 85 % 0 mm 74 W/m2
10:49 13.4 °C 11.1 °C 1012.1 hPa WNW 35.4 km/h 59.5 km/h 86 % 0 mm 83 W/m2
10:54 13.3 °C 10.8 °C 1012.1 hPa WNW 35.4 km/h 56.3 km/h 85 % 0 mm 93 W/m2
10:59 13.4 °C 10.9 °C 1012.1 hPa WNW 38.6 km/h 59.5 km/h 85 % 0 mm 127 W/m2
11:04 13.6 °C 10.8 °C 1012.1 hPa WNW 38.6 km/h 59.5 km/h 83 % 0 mm 139 W/m2
11:10 13.7 °C 10.7 °C 1012.1 hPa West 37 km/h 56.3 km/h 82 % 0 mm 130 W/m2
11:15 13.8 °C 10.8 °C 1012.1 hPa WNW 35.4 km/h 54.7 km/h 82 % 0 mm 153 W/m2
11:20 13.9 °C 10.9 °C 1012.4 hPa WNW 35.4 km/h 56.3 km/h 82 % 0 mm 183 W/m2
11:30 14.2 °C 10.8 °C 1012.4 hPa WNW 32.2 km/h 49.9 km/h 80 % 0 mm 213 W/m2
11:35 14.3 °C 10.9 °C 1012.4 hPa WNW 32.2 km/h 48.3 km/h 80 % 0 mm 213 W/m2
11:40 14.3 °C 10.9 °C 1012.4 hPa WNW 30.6 km/h 46.7 km/h 80 % 0 mm 202 W/m2
11:45 14.3 °C 11.3 °C 1012.4 hPa WNW 30.6 km/h 48.3 km/h 82 % 0 mm 179 W/m2
11:50 14.2 °C 11.3 °C 1012.8 hPa WNW 29 km/h 48.3 km/h 83 % 0 mm 165 W/m2
11:55 14.1 °C 11.3 °C 1012.8 hPa West 25.7 km/h 43.5 km/h 83 % 0 mm 153 W/m2
12:00 14 °C 11.2 °C 1012.8 hPa WNW 29 km/h 46.7 km/h 83 % 0 mm 149 W/m2
12:05 14 °C 11 °C 1013.1 hPa WNW 30.6 km/h 46.7 km/h 82 % 0 mm 149 W/m2
12:10 14 °C 11 °C 1013.1 hPa WNW 29 km/h 46.7 km/h 82 % 0 mm 156 W/m2
12:15 14 °C 11.2 °C 1013.1 hPa WNW 25.7 km/h 41.8 km/h 83 % 0 mm 141 W/m2
12:20 14 °C 11.2 °C 1013.1 hPa WNW 24.1 km/h 45.1 km/h 83 % 0 mm 134 W/m2
12:25 13.9 °C 10.9 °C 1013.1 hPa WNW 24.1 km/h 45.1 km/h 82 % 0 mm 132 W/m2
12:30 13.9 °C 11.1 °C 1013.1 hPa West 24.1 km/h 43.5 km/h 83 % 0 mm 127 W/m2
12:35 13.9 °C 11.1 °C 1013.1 hPa West 22.5 km/h 35.4 km/h 83 % 0 mm 128 W/m2
12:40 13.8 °C 10.9 °C 1013.1 hPa West 22.5 km/h 38.6 km/h 83 % 0 mm 121 W/m2
12:45 13.9 °C 11.2 °C 1013.4 hPa West 20.9 km/h 38.6 km/h 84 % 0 mm 158 W/m2
12:50 13.9 °C 11.2 °C 1013.1 hPa WNW 19.3 km/h 32.2 km/h 84 % 0 mm 165 W/m2
12:55 14 °C 11.3 °C 1013.1 hPa West 16.1 km/h 29 km/h 84 % 0 mm 135 W/m2
13:00 14 °C 11.3 °C 1013.1 hPa West 16.1 km/h 30.6 km/h 84 % 0 mm 105 W/m2
13:05 13.9 °C 11.1 °C 1013.4 hPa West 19.3 km/h 33.8 km/h 83 % 0 mm 69 W/m2
13:10 13.9 °C 11.1 °C 1013.1 hPa WNW 20.9 km/h 35.4 km/h 83 % 0 mm 107 W/m2
13:15 13.9 °C 11.2 °C 1013.4 hPa WNW 19.3 km/h 35.4 km/h 84 % 0 mm 114 W/m2
13:20 13.9 °C 11.2 °C 1013.1 hPa West 20.9 km/h 33.8 km/h 84 % 0 mm 214 W/m2
13:25 14 °C 11.3 °C 1013.1 hPa West 19.3 km/h 33.8 km/h 84 % 0 mm 206 W/m2
13:30 14.1 °C 11.3 °C 1013.1 hPa WNW 16.1 km/h 32.2 km/h 83 % 0 mm 213 W/m2
13:35 14.2 °C 11.3 °C 1013.1 hPa WNW 17.7 km/h 32.2 km/h 83 % 0 mm 149 W/m2
13:40 14.2 °C 11.3 °C 1012.8 hPa WNW 19.3 km/h 33.8 km/h 83 % 0 mm 107 W/m2
13:45 14.2 °C 11.3 °C 1012.8 hPa WNW 20.9 km/h 35.4 km/h 83 % 0 mm 118 W/m2
13:50 14.2 °C 11.3 °C 1012.8 hPa WNW 19.3 km/h 35.4 km/h 83 % 0 mm 107 W/m2
13:55 14.2 °C 11.2 °C 1012.8 hPa West 19.3 km/h 37 km/h 82 % 0 mm 113 W/m2
14:05 14.1 °C 11.3 °C 1012.4 hPa West 24.1 km/h 45.1 km/h 83 % 0 mm 149 W/m2
14:10 14.2 °C 11.3 °C 1012.4 hPa West 22.5 km/h 45.1 km/h 83 % 0 mm 162 W/m2
14:15 14.2 °C 11.3 °C 1012.4 hPa WNW 20.9 km/h 35.4 km/h 83 % 0 mm 204 W/m2
14:20 14.3 °C 11.3 °C 1012.4 hPa WNW 20.9 km/h 37 km/h 82 % 0 mm 144 W/m2
14:26 14.3 °C 11.3 °C 1012.4 hPa WNW 22.5 km/h 37 km/h 82 % 0 mm 128 W/m2
14:31 14.3 °C 11.3 °C 1012.4 hPa WNW 22.5 km/h 37 km/h 82 % 0 mm 149 W/m2
14:36 14.3 °C 11.4 °C 1012.4 hPa WNW 22.5 km/h 41.8 km/h 83 % 0 mm 172 W/m2
14:41 14.4 °C 11.9 °C 1012.4 hPa WNW 20.9 km/h 41.8 km/h 85 % 0 mm 186 W/m2
14:51 14.1 °C 11.4 °C 1012.4 hPa WNW 24.1 km/h 38.6 km/h 84 % 0 mm 56 W/m2
14:56 14.1 °C 11.6 °C 1012.4 hPa WNW 20.9 km/h 37 km/h 85 % 0 mm 35 W/m2
15:00 13.9 °C 11.4 °C 1012.8 hPa WNW 17.7 km/h 32.2 km/h 85 % 0 mm 39 W/m2
15:05 13.8 °C 11.5 °C 1012.8 hPa WNW 17.7 km/h 32.2 km/h 86 % 0 mm 46 W/m2
15:10 13.6 °C 11.5 °C 1012.8 hPa WNW 17.7 km/h 32.2 km/h 87 % 0 mm 42 W/m2
15:15 13.5 °C 11.6 °C 1012.8 hPa WNW 16.1 km/h 25.7 km/h 88 % 0.25 mm 51 W/m2
15:20 13.3 °C 11.3 °C 1012.4 hPa WNW 16.1 km/h 32.2 km/h 88 % 0.25 mm 58 W/m2
15:25 13.2 °C 11.4 °C 1012.4 hPa WNW 19.3 km/h 32.2 km/h 89 % 0.25 mm 60 W/m2
15:30 13.1 °C 11.3 °C 1012.8 hPa WNW 17.7 km/h 30.6 km/h 89 % 0.25 mm 47 W/m2
15:35 13.1 °C 11.3 °C 1012.4 hPa WNW 17.7 km/h 30.6 km/h 89 % 0.25 mm 58 W/m2
15:40 13 °C 11.2 °C 1012.8 hPa WNW 19.3 km/h 35.4 km/h 89 % 0.25 mm 60 W/m2
15:45 13.1 °C 11.3 °C 1012.8 hPa WNW 20.9 km/h 40.2 km/h 89 % 0.25 mm 53 W/m2
15:50 13.1 °C 11.3 °C 1012.8 hPa WNW 17.7 km/h 40.2 km/h 89 % 0.25 mm 46 W/m2
15:55 13.1 °C 11.3 °C 1012.8 hPa WNW 14.5 km/h 24.1 km/h 89 % 0.25 mm 44 W/m2
16:05 13 °C 11.1 °C 1012.8 hPa WNW 11.3 km/h 25.7 km/h 88 % 0.25 mm 44 W/m2
16:10 13.1 °C 11.2 °C 1012.8 hPa WNW 12.9 km/h 33.8 km/h 88 % 0.25 mm 39 W/m2
16:15 13.1 °C 11.2 °C 1012.8 hPa WNW 16.1 km/h 33.8 km/h 88 % 0 mm 56 W/m2
16:20 13.1 °C 11.2 °C 1012.8 hPa WNW 19.3 km/h 38.6 km/h 88 % 0 mm 104 W/m2
16:25 13.2 °C 11.3 °C 1012.8 hPa WNW 19.3 km/h 38.6 km/h 88 % 0 mm 188 W/m2
16:30 13.3 °C 11.3 °C 1012.4 hPa WNW 16.1 km/h 29 km/h 88 % 0 mm 137 W/m2
16:35 13.4 °C 11.4 °C 1012.8 hPa WNW 16.1 km/h 29 km/h 88 % 0 mm 297 W/m2
16:40 13.5 °C 11.4 °C 1012.4 hPa WNW 16.1 km/h 32.2 km/h 87 % 0 mm 294 W/m2
16:45 13.6 °C 11.5 °C 1012.8 hPa WNW 16.1 km/h 32.2 km/h 87 % 0 mm 202 W/m2
16:50 13.7 °C 11.6 °C 1012.8 hPa WNW 16.1 km/h 30.6 km/h 87 % 0 mm 72 W/m2
16:55 13.7 °C 11.4 °C 1013.1 hPa WNW 16.1 km/h 30.6 km/h 86 % 0 mm 42 W/m2
17:00 13.6 °C 11.3 °C 1013.1 hPa WNW 17.7 km/h 32.2 km/h 86 % 0 mm 49 W/m2
17:05 13.4 °C 11.3 °C 1013.1 hPa WNW 17.7 km/h 32.2 km/h 87 % 0 mm 23 W/m2
17:10 13.4 °C 11.3 °C 1013.1 hPa WNW 14.5 km/h 22.5 km/h 87 % 0 mm 19 W/m2
17:11 13.3 °C 11.2 °C 1013.1 hPa WNW 14.5 km/h 22.5 km/h 87 % 0 mm 19 W/m2
17:16 13.3 °C 11.3 °C 1013.1 hPa WNW 12.9 km/h 22.5 km/h 88 % 0 mm 39 W/m2
17:21 13.2 °C 11.4 °C 1013.1 hPa WNW 12.9 km/h 22.5 km/h 89 % 0 mm 44 W/m2
17:26 13.1 °C 11.5 °C 1013.1 hPa WNW 12.9 km/h 22.5 km/h 90 % 0 mm 47 W/m2
17:31 13.1 °C 11.5 °C 1013.1 hPa WNW 12.9 km/h 24.1 km/h 90 % 0 mm 49 W/m2
17:36 13.1 °C 11.5 °C 1013.1 hPa WNW 14.5 km/h 24.1 km/h 90 % 0 mm 47 W/m2
17:46 12.9 °C 11.3 °C 1013.1 hPa WNW 14.5 km/h 22.5 km/h 90 % 0 mm 26 W/m2
17:51 12.9 °C 11.3 °C 1013.1 hPa WNW 16.1 km/h 30.6 km/h 90 % 0 mm 33 W/m2
17:56 12.9 °C 11.3 °C 1013.1 hPa WNW 17.7 km/h 32.2 km/h 90 % 0 mm 42 W/m2
18:01 12.9 °C 11.1 °C 1013.1 hPa WNW 19.3 km/h 32.2 km/h 89 % 0 mm 30 W/m2
18:06 12.9 °C 11.1 °C 1013.1 hPa West 20.9 km/h 32.2 km/h 89 % 0 mm 14 W/m2
18:11 12.9 °C 11.1 °C 1013.1 hPa West 20.9 km/h 32.2 km/h 89 % 0 mm 11 W/m2
18:16 12.9 °C 11.1 °C 1013.1 hPa WNW 19.3 km/h 38.6 km/h 89 % 0 mm 5 W/m2
18:21 12.8 °C 11.2 °C 1013.4 hPa WNW 20.9 km/h 38.6 km/h 90 % 0 mm 5 W/m2
18:26 12.8 °C 11.2 °C 1013.4 hPa WNW 20.9 km/h 35.4 km/h 90 % 0 mm 0 W/m2
18:31 12.7 °C 11.1 °C 1013.1 hPa WNW 19.3 km/h 33.8 km/h 90 % 0 mm 0 W/m2
18:36 12.6 °C 11.2 °C 1013.1 hPa WNW 19.3 km/h 33.8 km/h 91 % 0 mm 0 W/m2
18:41 12.4 °C 10.9 °C 1013.4 hPa WNW 16.1 km/h 25.7 km/h 91 % 0 mm 0 W/m2
18:46 12.3 °C 10.9 °C 1013.4 hPa WNW 14.5 km/h 29 km/h 91 % 0 mm 0 W/m2
18:51 12.3 °C 10.9 °C 1013.4 hPa WNW 16.1 km/h 30.6 km/h 91 % 0 mm 0 W/m2
18:56 12.3 °C 10.9 °C 1013.4 hPa WNW 17.7 km/h 30.6 km/h 91 % 0 mm 0 W/m2
19:01 12.3 °C 10.9 °C 1013.4 hPa WNW 19.3 km/h 33.8 km/h 91 % 0 mm 0 W/m2
19:06 12.3 °C 10.9 °C 1013.4 hPa West 20.9 km/h 38.6 km/h 91 % 0 mm 0 W/m2
19:11 12.3 °C 10.9 °C 1013.4 hPa West 24.1 km/h 38.6 km/h 91 % 0 mm 0 W/m2
19:16 12.3 °C 10.9 °C 1013.4 hPa West 24.1 km/h 37 km/h 91 % 0 mm 0 W/m2
19:22 12.2 °C 10.8 °C 1013.4 hPa West 22.5 km/h 37 km/h 91 % 0 mm 0 W/m2
19:27 12.2 °C 10.8 °C 1013.4 hPa WNW 19.3 km/h 32.2 km/h 91 % 0 mm 0 W/m2
19:31 12.1 °C 10.7 °C 1013.4 hPa WNW 16.1 km/h 32.2 km/h 91 % 0 mm 0 W/m2
19:37 12.1 °C 10.8 °C 1013.8 hPa WNW 14.5 km/h 25.7 km/h 92 % 0 mm 0 W/m2
19:47 12 °C 10.7 °C 1013.8 hPa WNW 14.5 km/h 22.5 km/h 92 % 0 mm 0 W/m2
19:52 11.9 °C 10.7 °C 1014.1 hPa WNW 14.5 km/h 22.5 km/h 92 % 0 mm 0 W/m2
19:57 11.9 °C 10.7 °C 1014.1 hPa WNW 12.9 km/h 22.5 km/h 92 % 0 mm 0 W/m2
20:02 11.9 °C 10.7 °C 1014.4 hPa WNW 14.5 km/h 24.1 km/h 92 % 0 mm 0 W/m2
20:07 11.9 °C 10.7 °C 1014.4 hPa WNW 12.9 km/h 24.1 km/h 92 % 0 mm 0 W/m2
20:12 11.9 °C 10.7 °C 1014.4 hPa WNW 11.3 km/h 17.7 km/h 92 % 0 mm 0 W/m2
20:17 12 °C 10.7 °C 1014.1 hPa WNW 12.9 km/h 22.5 km/h 92 % 0 mm 0 W/m2
20:22 12 °C 10.7 °C 1014.4 hPa WNW 14.5 km/h 22.5 km/h 92 % 0 mm 0 W/m2
20:27 12 °C 10.6 °C 1014.1 hPa WNW 12.9 km/h 22.5 km/h 91 % 0 mm 0 W/m2
20:32 12.1 °C 10.7 °C 1014.1 hPa WNW 14.5 km/h 24.1 km/h 91 % 0 mm 0 W/m2
20:37 12 °C 10.6 °C 1014.1 hPa WNW 16.1 km/h 24.1 km/h 91 % 0 mm 0 W/m2
20:42 12 °C 10.6 °C 1014.4 hPa WNW 14.5 km/h 22.5 km/h 91 % 0 mm 0 W/m2
20:49 11.9 °C 10.5 °C 1014.4 hPa WNW 14.5 km/h 22.5 km/h 91 % 0 mm 0 W/m2
20:54 11.9 °C 10.5 °C 1014.4 hPa WNW 12.9 km/h 24.1 km/h 91 % 0 mm 0 W/m2
20:59 11.9 °C 10.5 °C 1014.1 hPa WNW 12.9 km/h 20.9 km/h 91 % 0 mm 0 W/m2
21:04 11.8 °C 10.4 °C 1014.4 hPa WNW 14.5 km/h 24.1 km/h 91 % 0 mm 0 W/m2
21:09 11.8 °C 10.4 °C 1014.1 hPa WNW 12.9 km/h 24.1 km/h 91 % 0 mm 0 W/m2
21:14 11.8 °C 10.4 °C 1014.1 hPa WNW 12.9 km/h 22.5 km/h 91 % 0 mm 0 W/m2
21:19 11.8 °C 10.4 °C 1014.4 hPa West 12.9 km/h 24.1 km/h 91 % 0 mm 0 W/m2
21:24 11.8 °C 10.2 °C 1014.4 hPa West 12.9 km/h 24.1 km/h 90 % 0 mm 0 W/m2
21:29 11.7 °C 10.1 °C 1014.4 hPa West 11.3 km/h 17.7 km/h 90 % 0 mm 0 W/m2
21:34 11.7 °C 10.1 °C 1014.4 hPa WNW 12.9 km/h 24.1 km/h 90 % 0 mm 0 W/m2
21:39 11.7 °C 10.1 °C 1014.4 hPa WNW 16.1 km/h 29 km/h 90 % 0 mm 0 W/m2
21:44 11.7 °C 10.1 °C 1014.8 hPa WNW 16.1 km/h 29 km/h 90 % 0 mm 0 W/m2
21:49 11.7 °C 10.1 °C 1014.8 hPa WNW 16.1 km/h 24.1 km/h 90 % 0 mm 0 W/m2
21:54 11.7 °C 10.1 °C 1014.8 hPa WNW 16.1 km/h 24.1 km/h 90 % 0 mm 0 W/m2
21:59 11.7 °C 10.1 °C 1014.8 hPa WNW 16.1 km/h 30.6 km/h 90 % 0 mm 0 W/m2
22:04 11.7 °C 10.1 °C 1014.8 hPa WNW 16.1 km/h 30.6 km/h 90 % 0 mm 0 W/m2
22:09 11.7 °C 10.1 °C 1014.8 hPa WNW 16.1 km/h 25.7 km/h 90 % 0 mm 0 W/m2
22:14 11.7 °C 10.1 °C 1014.8 hPa WNW 16.1 km/h 25.7 km/h 90 % 0 mm 0 W/m2
22:20 11.6 °C 10 °C 1015.1 hPa WNW 14.5 km/h 24.1 km/h 90 % 0 mm 0 W/m2
22:25 11.6 °C 10 °C 1015.1 hPa WNW 14.5 km/h 24.1 km/h 90 % 0 mm 0 W/m2
22:30 11.6 °C 10 °C 1015.1 hPa WNW 16.1 km/h 29 km/h 90 % 0 mm 0 W/m2
22:35 11.6 °C 10 °C 1015.1 hPa WNW 16.1 km/h 29 km/h 90 % 0 mm 0 W/m2
22:40 11.6 °C 10 °C 1015.5 hPa WNW 14.5 km/h 24.1 km/h 90 % 0 mm 0 W/m2
22:45 11.5 °C 9.9 °C 1015.5 hPa WNW 12.9 km/h 22.5 km/h 90 % 0 mm 0 W/m2
22:50 11.4 °C 9.8 °C 1015.5 hPa WNW 12.9 km/h 24.1 km/h 90 % 0 mm 0 W/m2
22:55 11.4 °C 9.8 °C 1015.5 hPa WNW 14.5 km/h 24.1 km/h 90 % 0 mm 0 W/m2
23:00 11.4 °C 9.8 °C 1015.5 hPa WNW 16.1 km/h 25.7 km/h 90 % 0 mm 0 W/m2
23:05 11.4 °C 10 °C 1015.5 hPa WNW 16.1 km/h 29 km/h 91 % 0 mm 0 W/m2
23:10 11.4 °C 10 °C 1015.1 hPa WNW 16.1 km/h 29 km/h 91 % 0 mm 0 W/m2
23:15 11.4 °C 10 °C 1015.5 hPa WNW 14.5 km/h 25.7 km/h 91 % 0 mm 0 W/m2
23:20 11.3 °C 9.9 °C 1015.5 hPa West 12.9 km/h 22.5 km/h 91 % 0 mm 0 W/m2
23:30 11.2 °C 9.6 °C 1015.5 hPa West 9.7 km/h 17.7 km/h 90 % 0 mm 0 W/m2
23:35 11.2 °C 9.6 °C 1015.5 hPa West 9.7 km/h 17.7 km/h 90 % 0 mm 0 W/m2
23:40 11.1 °C 9.7 °C 1015.5 hPa West 9.7 km/h 17.7 km/h 91 % 0 mm 0 W/m2
23:45 11.1 °C 9.7 °C 1015.5 hPa West 12.9 km/h 24.1 km/h 91 % 0 mm 0 W/m2
23:50 11.1 °C 9.7 °C 1015.5 hPa WNW 14.5 km/h 24.1 km/h 91 % 0 mm 0 W/m2
23:55 11.1 °C 9.7 °C 1015.5 hPa WNW 12.9 km/h 20.9 km/h 91 % 0 mm 0 W/m2
Delerius-Weather
Compliments of Weather Underground - 2.25 mb

Data updates at regular intervals.